This is the latest recevied weather packets stored in our database for station/object LU3HGB-WX. If no packets are shown the sender has not sent any weather packets the latest 10 day(s).
| Time | Temp. | Humidity | Pressure | Rain* | Wind** | Luminosity | Snow |
|---|---|---|---|---|---|---|---|
| 1777406260 | 18.33° C | 46% | 1014 hPa | 0 mm | - | 291 W/m² | - |
| 1777405959 | 18.33° C | 45% | 1015 hPa | 0 mm | - | 305 W/m² | - |
| 1777405659 | 18.33° C | 44% | 1015 hPa | 0 mm | - | 321 W/m² | - |
| 1777405359 | 18.33° C | 47% | 1015 hPa | 0 mm | - | 338 W/m² | - |
| 1777405059 | 17.78° C | 49% | 1015 hPa | 0 mm | - | 354 W/m² | - |
| 1777404759 | 17.78° C | 46% | 1015 hPa | 0 mm | - | 370 W/m² | - |
| 1777404460 | 17.78° C | 49% | 1015 hPa | 0 mm | - | 389 W/m² | - |
| 1777404159 | 17.78° C | 47% | 1016 hPa | 0 mm | - | 402 W/m² | - |
| 1777403860 | 17.78° C | 47% | 1016 hPa | 0 mm | - | 418 W/m² | - |
| 1777403560 | 18.33° C | 48% | 1016 hPa | 0 mm | - | 435 W/m² | - |
| 1777403261 | 18.33° C | 48% | 1016 hPa | 0 mm | - | 448 W/m² | - |
| 1777402959 | 18.33° C | 48% | 1016 hPa | 0 mm | - | 463 W/m² | - |
| 1777402659 | 18.33° C | 46% | 1016 hPa | 0 mm | - | 482 W/m² | - |
| 1777402361 | 17.78° C | 47% | 1016 hPa | 0 mm | - | 493 W/m² | - |
| 1777402059 | 17.78° C | 51% | 1016 hPa | 0 mm | - | 508 W/m² | - |
| 1777401761 | 17.78° C | 47% | 1016 hPa | 0 mm | - | 519 W/m² | - |
| 1777401460 | 17.78° C | 48% | 1016 hPa | 0 mm | - | 533 W/m² | - |
| 1777401160 | 18.33° C | 47% | 1016 hPa | 0 mm | - | 547 W/m² | - |
| 1777400859 | 18.89° C | 42% | 1016 hPa | 0 mm | - | 562 W/m² | - |
| 1777400560 | 18.33° C | 46% | 1016 hPa | 0 mm | - | 571 W/m² | - |
| 1777400260 | 18.33° C | 46% | 1016 hPa | 0 mm | - | 582 W/m² | - |
| 1777399960 | 17.78° C | 47% | 1016 hPa | 0 mm | - | 594 W/m² | - |
| 1777399660 | 18.33° C | 46% | 1016 hPa | 0 mm | - | 605 W/m² | - |
| 1777399359 | 17.78° C | 49% | 1016 hPa | 0 mm | - | 617 W/m² | - |
| 1777399060 | 17.78° C | 49% | 1016 hPa | 0 mm | - | 625 W/m² | - |
* Rain latest hour (hover to see other rain measurements)
** Current wind speed in m/s (hover to see current wind gust speed)